Tekamah, NE

12:48 AM CDT on August 26, 2016 (GMT -0500)
Tekamah

Weather History for KTQE - February, 2013

Change the Weather History Date:

Monday, February 18, 2013

  Actual Average Record
Temperature  
Mean Temperature 28 °F -  
Max Temperature 37 °F 37 °F 70 °F (1981)
Min Temperature 16 °F 18 °F -13 °F (1978)
Degree Days  
Heating Degree Days 37    
Moisture  
Dew Point 20 °F    
Average Humidity 68    
Maximum Humidity 88    
Minimum Humidity 47    
Precipitation  
Precipitation 0.00 in - - ()
Sea Level Pressure  
Sea Level Pressure 29.83 in    
Wind  
Wind Speed 18 mph (NNW)    
Max Wind Speed 33 mph    
Max Gust Speed 43 mph    
Visibility 9 miles    
Events Snow    
Averages and records for this station are not official NWS values.
T = Trace of Precipitation, MM = Missing Value Source: NWS Daily Summary

Daily Weather History Graph

Daily Weather History Graph

Search for Another Location

Airport or City:

Trip Planner

Search our weather history database for the weather conditions in past years. The results will help you decide how hot, cold, wet, or windy it might be!

Date:

Astronomy

Feb. 18, 2013 Rise Set
Actual Time 7:15 AM CST 6:02 PM CST
Civil Twilight 6:47 AM CST 6:30 PM CST
Nautical Twilight 6:14 AM CST 7:02 PM CST
Astronomical Twilight 5:42 AM CST 7:35 PM CST
Moon 11:46 AM CST (2/18) 1:58 AM CST (2/18)
Length of Visible Light 11h 43m
Length of Day
10h 46m
First Quarter, 58% of the Moon is Illuminated
Feb 18
First Quarter
Feb 25
Full
Mar 4
Last Quarter
Mar 11
New
Mar 19
First Quarter

Hourly Weather History & Observations

Time (CST) Temp. Windchill Dew Point Humidity Pressure Visibility Wind Dir Wind Speed Gust Speed Precip Events Conditions
12:54 AM 35.1 °F 26.9 °F 28.9 °F 78% 29.60 in 8.0 mi NW 11.5 mph - N/A   Clear
1:54 AM 33.1 °F 25.5 °F 28.0 °F 82% 29.58 in 7.0 mi NNW 9.2 mph - N/A   Clear
2:54 AM 34.0 °F 28.0 °F 28.9 °F 82% 29.59 in 7.0 mi NNW 6.9 mph - N/A   Clear
3:54 AM 34.0 °F 28.0 °F 28.9 °F 82% 29.58 in 10.0 mi North 6.9 mph - N/A   Clear
4:54 AM 32.0 °F 25.6 °F 28.9 °F 88% 29.61 in 10.0 mi NW 6.9 mph - N/A   Clear
6:54 AM 34.0 °F 25.5 °F 28.9 °F 82% 29.63 in 10.0 mi North 11.5 mph - N/A   Clear
7:54 AM 37.9 °F 28.5 °F 30.9 °F 76% 29.66 in 10.0 mi NNW 17.3 mph - N/A   Overcast
8:49 AM 37.4 °F 26.6 °F 28.4 °F 70% 29.69 in 10.0 mi NNW 21.9 mph 28.8 mph N/A   Overcast
8:54 AM 37.9 °F 27.9 °F 28.9 °F 70% 29.70 in 10.0 mi NNW 19.6 mph 28.8 mph N/A   Overcast
9:54 AM 36.0 °F 22.8 °F 27.0 °F 70% 29.74 in 3.0 mi NNW 31.1 mph 40.3 mph 0.00 in Snow Light Snow
9:59 AM 35.6 °F 23.0 °F 26.6 °F 70% 29.74 in 1.8 mi NNW 27.6 mph 40.3 mph 0.00 in Snow Light Snow
10:29 AM 33.8 °F 20.3 °F 24.8 °F 70% 29.76 in 3.0 mi NNW 28.8 mph 42.6 mph 0.00 in Snow Light Snow
10:39 AM 33.8 °F 20.3 °F 24.8 °F 70% 29.77 in 9.0 mi NNW 28.8 mph 39.1 mph 0.00 in   Mostly Cloudy
10:52 AM 33.8 °F 20.1 °F 24.8 °F 70% 29.78 in 9.0 mi NNW 29.9 mph 36.8 mph 0.00 in   Mostly Cloudy
10:54 AM 33.1 °F 19.3 °F 23.0 °F 66% 29.79 in 9.0 mi NNW 28.8 mph 36.8 mph 0.00 in   Overcast
11:54 AM 32.0 °F 18.9 °F 23.0 °F 69% 29.83 in 8.0 mi NW 24.2 mph 32.2 mph N/A   Overcast
12:41 PM 30.2 °F 14.7 °F 17.6 °F 60% 29.84 in 10.0 mi NNW 32.2 mph 39.1 mph N/A   Scattered Clouds
12:54 PM 30.9 °F 16.7 °F 18.0 °F 59% 29.85 in 10.0 mi NNW 27.6 mph 36.8 mph N/A   Partly Cloudy
1:54 PM 32.0 °F 17.4 °F 16.0 °F 52% 29.86 in 10.0 mi NW 31.1 mph 38.0 mph N/A   Overcast
2:54 PM 30.0 °F 15.7 °F 14.0 °F 51% 29.90 in 10.0 mi NW 26.5 mph 36.8 mph N/A   Overcast
3:54 PM 30.9 °F 15.5 °F 12.9 °F 47% 29.91 in 10.0 mi NW 33.4 mph 40.3 mph N/A   Scattered Clouds
4:54 PM 28.9 °F 14.0 °F 12.9 °F 51% 29.94 in 10.0 mi NW 27.6 mph 38.0 mph N/A   Partly Cloudy
5:54 PM 26.1 °F 11.0 °F 12.9 °F 58% 29.97 in 10.0 mi NNW 24.2 mph 38.0 mph N/A   Scattered Clouds
6:54 PM 24.1 °F 10.6 °F 12.9 °F 62% 30.01 in 10.0 mi NNW 17.3 mph 33.4 mph N/A   Partly Cloudy
7:54 PM 21.9 °F 6.9 °F 12.0 °F 66% 30.02 in 10.0 mi NNW 19.6 mph 27.6 mph N/A   Clear
8:54 PM 19.9 °F 4.3 °F 10.9 °F 68% 30.04 in 10.0 mi NNW 19.6 mph - N/A   Clear
9:54 PM 21.0 °F 5.4 °F 12.0 °F 68% 30.05 in 10.0 mi NNW 20.7 mph 26.5 mph N/A   Clear
10:21 PM 21.2 °F 5.2 °F 10.4 °F 63% 30.05 in 10.0 mi NW 21.9 mph 32.2 mph N/A   Mostly Cloudy
10:34 PM 19.4 °F 2.1 °F 10.4 °F 68% 30.05 in 10.0 mi NNW 24.2 mph - N/A   Scattered Clouds
10:54 PM 19.0 °F 3.6 °F 10.0 °F 68% 30.09 in 10.0 mi NNW 18.4 mph 27.6 mph N/A   Clear
11:54 PM 16.0 °F -2.5 °F 7.0 °F 68% 30.11 in 10.0 mi NW 24.2 mph 32.2 mph N/A   Scattered Clouds